Home > Weather > Friesoythe > Past weeks

Flag for Germany Past Weather in Friesoythe, Lower Saxony, Germany — Yesterday and Last 2 Weeks

Now
63 °F

Mild.


Feels Like: 63 °F
Forecast: 51 / 62 °F
Wind: 5 mph from South

Location: Meppen-Mil

Current Time: Jun 26, 2016 at 5:41:03 PM

Latest Report: Jun 26, 2016 at 4:20 PM


Visibility: 6 mi

Pressure: 30.01 "Hg

Humidity: 68%

Dew Point: 52 °F

Location of FriesoytheLocation

Past Weather in Friesoythe — Graph

°F

Friesoythe Temperature Yesterday

Maximum temperature yesterday: 64 °F (at 12:20 AM)
Minimum temperature yesterday: 57 °F (at 9:20 PM)
Average temperature yesterday: 60 °F

High & Low Weather Summary for the Past Weeks

 TemperatureHumidityPressure
High86 °F (Jun 23, 4:20 PM)100% (Jun 13, 5:20 AM)30.24 "Hg (Jun 13, 5:20 AM)
Low48 °F (Jun 20, 12:20 AM)46% (Jun 16, 3:20 PM)29.45 "Hg (Jun 14, 12:20 PM)
Average62 °F77%29.86 "Hg
* Reported Jun 11 4:20 PM — Jun 26 4:20 PM, Friesoythe, Weather by CustomWeather, © 2016

Note: Actual official high and low records may vary slightly from our data, if they occured in-between our weather recording intervals... More about our weather records

Advertising

Friesoythe Weather History for the Previous 24 Hours

Scroll right to see more
 ConditionsComfort  
Time TempWeatherWind HumidityBarometerVisibility
4:20 PM
Sun, Jun 26
63 °FMild.5 mph68%30.01 "Hg6 mi
3:20 PM57 °FCool.6 mph77%30.01 "Hg5 mi
2:20 PM64 °FMild.7 mph60%30.01 "HgN/A
1:20 PM64 °FMild.7 mph60%30.01 "HgN/A
12:20 PM63 °FMild.8 mph68%30.01 "HgN/A
11:20 AM63 °FMild.7 mph68%30.01 "HgN/A
10:20 AM61 °FCool.7 mph72%30.01 "Hg6 mi
9:20 AM59 °FCool.5 mph82%29.98 "Hg6 mi
8:20 AM57 °FCool.6 mph88%29.98 "Hg4 mi
7:20 AM55 °FCool.5 mph94%29.98 "Hg3 mi
6:20 AM54 °FCool.3 mph94%29.98 "Hg3 mi
5:20 AM54 °FCool.1 mph94%29.98 "Hg2 mi
4:20 AM55 °FCool.3 mph94%29.95 "Hg2 mi
3:20 AM57 °FCool.3 mph94%29.95 "Hg2 mi
2:20 AM55 °FCool.3 mph94%29.95 "Hg1 mi
1:20 AM57 °FCool.2 mph94%29.98 "Hg2 mi
12:20 AM57 °FCool.2 mph94%29.98 "Hg3 mi
11:20 PM
Sat, Jun 25
57 °FCool.1 mph94%29.98 "Hg4 mi
10:20 PM57 °FCool.1 mph94%29.98 "Hg4 mi
9:20 PM57 °FCool.1 mph94%29.95 "Hg3 mi
8:20 PM59 °FCool.5 mph94%29.92 "Hg3 mi
7:20 PM59 °FCool.2 mph94%29.95 "Hg3 mi
6:20 PM59 °FCool.1 mph94%29.95 "Hg2 mi
5:20 PM59 °FCool.3 mph88%29.95 "Hg2 mi
Weather by CustomWeather, © 2016

See weather overviewHow to use our weather pages